Grand Marais, MN

9:47 PM CST on November 19, 2019 (GMT -0600)
Grand Marais

Weather History for KGNA - September, 2019

Change the Weather History Date:

Saturday, September 14, 2019

  Actual Average (KCKC) Record (KCKC)
Temperature  
Mean Temperature 54 °F -  
Max Temperature 64 °F 62 °F 77 °F (1997)
Min Temperature 46 °F 43 °F 28 °F (2001)
Degree Days  
Heating Degree Days 12    
Growing Degree Days 4 (Base 50)    
Moisture  
Dew Point 47 °F    
Average Humidity 85    
Maximum Humidity 96    
Minimum Humidity 58    
Precipitation  
Precipitation 0.01 in - - ()
Sea Level Pressure  
Sea Level Pressure 30.00 in    
Wind  
Wind Speed 6 mph (West)    
Max Wind Speed 15 mph    
Max Gust Speed 21 mph    
Averages and records for this station are not official NWS values.
T = Trace of Precipitation, MM = Missing Value Source: NWS Daily Summary

Daily Weather History Graph

Daily Weather History Graph

Search for Another Location

Airport or City:

Astronomy

Sep. 14, 2019 Rise Set
Actual Time 6:36 AM CDT 7:16 PM CDT
Civil Twilight 6:05 AM CDT 7:47 PM CDT
Nautical Twilight 5:28 AM CDT 8:24 PM CDT
Astronomical Twilight 4:49 AM CDT 9:02 PM CDT
Moon 7:57 PM CDT (9/14) 6:47 AM CDT (9/14)
Length of Visible Light 13h 41m
Length of Day
12h 39m
Full, 100% of the Moon is Illuminated
Sep 14
Full
Sep 21
Last Quarter
Sep 28
New
Oct 5
First Quarter
Oct 13
Full

Hourly Weather History & Observations

Time (CDT) Temp. Windchill Dew Point Humidity Pressure Visibility Wind Dir Wind Speed Gust Speed Precip Events Conditions
12:56 AM 50.0 °F - 46.9 °F 89% 29.85 in - WSW 5.8 mph - N/A   Unknown
1:56 AM 50.0 °F - 46.9 °F 89% 29.87 in - West 6.9 mph - N/A   Unknown
2:56 AM 50.0 °F - 46.9 °F 89% 29.89 in - West 4.6 mph - N/A   Unknown
3:56 AM 51.1 °F - 44.1 °F 77% 29.91 in - WSW 5.8 mph - N/A   Unknown
4:56 AM 48.0 °F - 44.1 °F 86% 29.94 in - WSW 5.8 mph - N/A   Unknown
5:56 AM 46.9 °F - 44.1 °F 90% 29.96 in - West 4.6 mph - N/A   Unknown
6:56 AM 46.0 °F 41.9 °F 44.1 °F 93% 29.99 in - WSW 8.1 mph - N/A   Unknown
7:56 AM 50.0 °F - 45.0 °F 83% 30.00 in - WSW 11.5 mph - N/A   Unknown
8:56 AM 53.1 °F - 45.0 °F 74% 30.01 in - WSW 8.1 mph - N/A   Unknown
9:56 AM 51.1 °F - 45.0 °F 80% 30.04 in - SW 15.0 mph - N/A   Unknown
10:56 AM 61.0 °F - 46.0 °F 58% 30.04 in - Variable 6.9 mph - N/A   Unknown
11:56 AM 53.1 °F - 48.0 °F 83% 30.05 in - WSW 8.1 mph 20.7 mph N/A   Unknown
12:56 PM 54.0 °F - 48.9 °F 83% 30.06 in - WSW 10.4 mph - N/A   Unknown
2:56 PM 54.0 °F - 48.9 °F 83% 30.06 in - WSW 8.1 mph - N/A   Unknown
3:56 PM 55.0 °F - 48.0 °F 77% 30.04 in - WSW 5.8 mph - N/A   Unknown
4:56 PM 54.0 °F - 46.9 °F 77% 30.04 in - West 4.6 mph - N/A   Unknown
5:56 PM 52.0 °F - 48.0 °F 86% 30.05 in - WSW 5.8 mph - N/A   Unknown
6:56 PM 50.0 °F - 48.9 °F 96% 30.06 in - Calm Calm - N/A   Unknown
7:56 PM 51.1 °F - 48.9 °F 92% 30.04 in - NE 5.8 mph - 0.01 in   Unknown
8:56 PM 51.1 °F - 48.9 °F 92% 30.02 in - NE 4.6 mph - N/A   Unknown
9:56 PM 51.1 °F - 48.9 °F 92% 30.04 in - North 4.6 mph - N/A   Unknown
10:56 PM 50.0 °F - 48.9 °F 96% 30.06 in - NNE 4.6 mph - N/A   Unknown
11:56 PM 51.1 °F - 48.0 °F 89% 30.07 in - NNE 3.5 mph - N/A   Unknown